UOSAT 2 (UO-11)

Last updated on Mon Sep 21 2026 00:03:14 GMT+0000 (Coordinated Universal Time)

1 14781U 84021B 26263.45779620 .00001031 00000+0 10996-3 0 9997 2 14781 97.8182 228.0399 0006428 220.8045 139.2693 14.91001989271322
UTC large
Height (km)
Speed (km/s)
/
Latitude / Longitude
Inclination (degrees)
Orbital Period (minutes)
Azimuth
Elevation
Range (km)
Doppler Factor

Next 0 passes for location: London (51.5072 / 0.1276)

No passes found over London.
UOSAT 2 (UO-11)